Tracking 18987 objects as of 25-Feb-2018
HD Live streaming from Space Station
objects crossing your sky now

FENGYUN 1C DEB

Track FENGYUN 1C DEB now!
10-day predictions


NORAD ID: 31997
Int'l Code: 1999-025CQA
Perigee: 843.4 km
Apogee: 1,304.4 km
Inclination: 102.5 °
Period: 106.5 minutes
Semi major axis: 7444 km
RCS: 0.013 m2 (small)
Launch date: May 10, 1999
Source: People's Republic of China (PRC)
Launch site: Taiyaun Space Center, China (TSC)

Note: This is SATELLITE DEBRIS
aabbcc
Your satellite tracking list
Your tracking list is empty




NASA's NSSDC Master Catalog

Two Line Element Set (TLE):
1 31997U 99025CQA 18055.15149254 +.00000599 +00000-0 +75369-3 0  9990
2 31997 102.5178 030.6072 0309575 160.5234 200.8028 13.51491224231247
Source of the keplerian elements: AFSPC